Location: Kellogg
(38.0159°N, 90.0546°W)
Time: 08:39:29
(UTC+00:00)

S-56A Canister/Altair - Pass Details

Date: 17 September 2024
Orbit: 636 x 2487 km, 38.9° (Epoch: 09 October)

Event Time Altitude Azimuth Distance (km) Brightness Sun altitude
Rises 22:09:29 0° 211° (SSW) 2,916 11.2 21.5°
Reaches altitude 10° 22:12:01 10° 196° (SSW) 2,054 10.3 21.1°
Maximum altitude 22:15:42 24° 143° (SE) 1,480 8.9 20.4°
Drops below altitude 10° 22:20:02 10° 90° (E) 2,468 9.6 19.5°
Sets 22:23:25 0° 78° (ENE) 3,673 10.4 18.9°
